Regional Weather Roundup
Issued by NWS

Home | Current Version | Previous Version | Text Only | Print | Product List | Glossary On
Versions: 1 2 3 4 5 6 7 8 9 10 11 12 13 14 15 16 17 18 19 20 21 22 23 24 25 26 27 28 29 30 31 32 33 34 35 36 37 38 39 40 41 42 43 44 45 46 47 48 49 50
000
ASUS43 KDTX 260410
RWRMI
MICHIGAN HOURLY REGIONAL WEATHER ROUNDUP
NATIONAL WEATHER SERVICE DETROIT/PONTIAC MI
1200 AM EDT WED APR 26 2017

NOTE: "FAIR" INDICATES FEW OR NO CLOUDS BELOW 12,000 FEET WITH NO
SIGNIFICANT WEATHER AND/OR OBSTRUCTION TO VISIBILITY.

MIZ047>049-052>055-059>063-066>070-074>076-081>083-260500-
SOUTHEAST LOWER MICHIGAN

CITY           SKY/WX    TMP DP  RH WIND       PRES   REMARKS
ADRIAN         CLOUDY    55  51  86 E6        29.72S
ALMA           CLOUDY    63  55  75 S8        29.70S
ANN ARBOR      CLOUDY    57  52  83 E3        29.73S
BAD AXE        CLEAR     54  50  89 SE6       29.75S
CARO           CLOUDY    59  53  79 SE10      29.72F
DETROIT CITY   CLEAR     54  50  86 E8        29.75S
DETROIT        CLOUDY    56  50  80 E3        29.75R
FLINT          CLOUDY    59  52  77 SE10      29.73S
GROSSE ILE     CLEAR     55  50  84 E3        29.73S
HILLSDALE      CLOUDY    55  50  82 E8        29.70S
HOWELL         PTCLDY    59  51  75 SE12      29.72S

CITY           SKY/WX    TMP DP  RH WIND       PRES   REMARKS
JACKSON        PTCLDY    58  51  78 SE12      29.71S
LAMBERTVILLE   PTCLDY    54  52  92 CALM      29.72R
LANSING        CLOUDY    63  52  67 SE16      29.70S
LAPEER         FAIR      58  52  80 SE10      29.75S
MASON          CLOUDY    61  53  76 SE10      29.71S
MONROE         CLOUDY    55  51  87 E6        29.73R
MT. CLEMENS    CLEAR     56  55  98 E12       29.74S
PONTIAC        CLOUDY    56  50  80 SE7       29.74S
PORT HOPE        N/A     52  49  89 SE12G21   29.75S
PORT HURON     CLEAR     57  50  77 SE5       29.77S
TRI CITIES     CLOUDY    62  54  74 SE9       29.72R
MIDLAND        FAIR      63  52  66 SE7       29.71S
TROY           CLEAR     56  51  81 E3        29.77S
SAGINAW HB     CLOUDY    61  50  67 SE7       29.72R
$$
MIZ043>046-050>051-056>058-064>065-071>073-077>080-260500-
SOUTHWEST LOWER MICHIGAN

CITY           SKY/WX    TMP DP  RH WIND       PRES   REMARKS
BATTLE CREEK   CLEAR     63  53  70 SE9       29.68S
BENTON HARBOR  CLOUDY    66  54  65 CALM      29.63R
BIG RAPIDS     MOCLDY    61  53  73 S7        29.67F
COLDWATER      CLEAR     58  53  81 SE7       29.68F
FREMONT        FAIR      65  52  63 E8        29.64F
HOLLAND        PTCLDY    65  55  70 E9        29.64S
GRAND RAPIDS   CLOUDY    65  55  70 SE10      29.66S
IONIA          FAIR      62  53  70 SE9       29.68S
KALAMAZOO      PTCLDY    64  52  64 SE8       29.67R
LUDINGTON      CLOUDY    62  55  76 E6        29.63F
MARSHALL       CLEAR     59  53  81 E6        29.68F
MOUNT PLEASANT MOCLDY    58  52  80 E6        29.70S
MUSKEGON       CLOUDY    65  55  70 E10       29.63F
SOUTH HAVEN    CLOUDY    65  55  69 CALM      29.63S
$$
MIZ016>042-260500-
NORTHERN LOWER MICHIGAN

CITY           SKY/WX    TMP DP  RH WIND       PRES   REMARKS
ALPENA         FOG       45  45 100 SE6       29.77F VSB 1/2
BEAVER ISLAND  CLOUDY    43  42  96 E9        29.71S
BELLAIRE       CLOUDY    61  51  69 CALM      29.69S
CADILLAC       CLOUDY    60  52  75 E9        29.69F
CHARLEVOIX     CLOUDY    59  48  67 E7        29.72F
FRANKFORT      CLOUDY    56  49  78 CALM      29.65F
GAYLORD        CLOUDY    59  50  72 SE7       29.72F
GRAYLING       CLOUDY    58  52  80 E7        29.73F
HARBOR SPRINGS CLOUDY    50  46  85 E8        29.72S
HOUGHTON LAKE  CLOUDY    59  52  77 E7        29.73S
MANISTEE       CLOUDY    62  54  74 E8        29.64S
OSCODA         PTCLDY    48  46  95 NW5       29.75S FOG
PELLSTON       CLOUDY    46  42  86 NE3       29.74S
ROGERS CITY    FOG       44  42  94 CALM      29.78S VSB 3/4
TRAVERSE CITY  CLOUDY    54  44  69 CALM      29.66F
$$
MIZ007>008-015-260500-
EASTERN UPPER MICHIGAN

CITY           SKY/WX    TMP DP  RH WIND       PRES   REMARKS
KINROSS        FOG       46  46 100 E14       29.77S VSB 1/2
MACKINAC ISLAN SNOW      42  42 100 E17G29    29.74S VSB 1/2
NEWBERRY       CLOUDY    48  47  97 E8        29.72F
S. S. MARIE    CLOUDY    50  47  89 E8        29.77F FOG
MUNISING         N/A     54  46  74 S6        29.68R
$$
MIZ004>006-011>014-085-260500-
CENTRAL UPPER MICHIGAN

CITY           SKY/WX    TMP DP  RH WIND       PRES   REMARKS
MANISTIQUE     RAIN      47  46  97 E8G16     29.70S
ESCANABA       LGT RAIN  47  44  90 NE6       29.69F
MENOMINEE      CLOUDY    49  44  83 E8        29.66S
SAWYER-GWINN   CLOUDY    50  46  84 S7        29.69S
$$
MIZ001>003-009>011-084-260500-
WESTERN UPPER MICHIGAN

CITY           SKY/WX    TMP DP  RH WIND       PRES   REMARKS
IRON MOUNTAIN  LGT RAIN  51  47  86 CALM      29.65F
HOUGHTON       CLOUDY    36  31  82 NE9G17    29.72R WCI  29
COPPER HARBOR    N/A     37  33  85 E13       29.76S WCI  29
IRONWOOD       LGT SNOW  34  33  96 N7        29.75F FOG     WCI  28
$$

ABBREVIATIONS USED IN REMARKS
   TC - TEMPERATURE IN CELSIUS
  WCI - WIND CHILL INDEX
   HX - HEAT INDEX
  VSB - VISIBILITY




USA.gov is the U.S. government's official web portal to all federal, state and local government web resources and services.